{"data":{"norad_id":67672,"intl_designator":"2026-022AA","name":"STARLINK-36616","alt_names":[],"object_type":"PAYLOAD","status":"ACTIVE","operator":null,"country":"US","launch_date":"2026-02-02","launch_site_code":"AFWTR","launch_vehicle":null,"mission":null,"orbit_class":"UNKNOWN","rcs_meters":null,"size_class":null,"mass_kg":null,"dimensions":null,"purposes":["comms"],"wikipedia_slug":null,"has_3d_model":false,"image_url":null,"decayed_at":null,"tle_current":{"epoch":"2026-09-19T19:19:30.766944Z","epoch_age_seconds":129195,"freshness":"FRESH","line1":"1 67672U 26022AA  26262.80521721  .00021108  00000+0  65404-3 0  9997","line2":"2 67672  97.2849 294.4246 0001863  98.5948 261.5506 15.33457815 35321","mean_motion":15.33457815,"eccentricity":0.0001863,"inclination_deg":97.2849,"raan_deg":294.4246,"arg_perigee_deg":98.5948,"mean_anomaly_deg":261.5506,"bstar":0.00065404,"rev_number":3532,"period_min":93.905419889232,"perigee_km":464.23007580655,"apogee_km":466.78001683301,"semimajor_km":6843.6420463198,"source":"CELESTRAK","updated_at":"2026-09-20T09:00:43.625400Z"}}}